Tracking 32427 objects as of 10-Dec-2025
HD Live streaming from Space Station
objects crossing your sky now

COSMOS 1859

Track COSMOS 1859 now!
10-day predictions
COSMOS 1859 is classified as:


NORAD ID: 18120
Int'l Code: 1987-051H
Perigee: 1,393.4 km
Apogee: 1,483.7 km
Inclination: 74.0 °
Period: 114.5 minutes
Semi major axis: 7809 km
RCS: 0.6713 m2 (medium)
Launch date: June 16, 1987
Source: Commonwealth of Independent States (former USSR) (CIS)
Launch site: PLESETSK MISSILE AND SPACE COMPLEX (PKMTR)
Your satellite tracking list
Your tracking list is empty




NASA's NSSDC Master Catalog

Two Line Element Set (TLE):
1 18120U 87051H   25344.55006093  .00000010  00000-0  15589-3 0  9991
2 18120  74.0044 275.1163 0057865 297.0080 237.0191 12.57952633767281
Source of the keplerian elements: AFSPC